This demonstration page uses our WeatherBlox Daily Observations layout. Learn more.

Left ArrowRight Arrow

39.51506, -84.39828

Hourly Observations for October 28, 2021

Temp ( °F °C ) Dew Point ( °F °C ) Humidity (%) Winds ( mph kmh ) Pressure ( in mb ) Visibility ( mi km ) Precip ( " mm )
12:15 am 00:15 Cloudy 49 9.7 45 7.1 84 84 ESE 7 11 29.89 1012 10 16 N/A
12:35 am 00:35 Cloudy 49 9.6 45 7.2 85 85 SE 7 11 29.89 1012 10 16 N/A
12:55 am 00:55 Cloudy 49 9.6 45 7.2 85 85 E 12 19 29.88 1012 10 16 N/A
1:15 am 01:15 Cloudy 49 9.6 45 7.3 86 86 E 7 11 29.87 1012 10 16 N/A
1:35 am 01:35 Cloudy 49 9.6 45 7.4 86 86 ESE 13 20 29.87 1012 10 16 N/A
1:55 am 01:55 Cloudy 49 9.5 45 7.3 86 86 E 8 13 29.86 1011 10 16 N/A
2:15 am 02:15 Cloudy 49 9.5 45 7.3 86 86 ESE 10 17 29.85 1011 10 16 N/A
2:35 am 02:35 Cloudy 49 9.5 45 7.3 86 86 ESE 9 15 29.85 1011 10 16 N/A
2:55 am 02:55 Cloudy 49 9.5 45 7.4 87 87 E 9 15 29.83 1010 10 16 N/A
3:15 am 03:15 Cloudy 49 9.5 45 7.3 86 86 E 10 17 29.83 1010 10 16 N/A
3:35 am 03:35 Cloudy 49 9.6 45 7.4 86 86 ESE 9 15 29.82 1010 10 16 N/A
3:55 am 03:55 Cloudy 49 9.6 46 7.5 87 87 E 10 17 29.80 1009 10 16 N/A
4:15 am 04:15 Cloudy 49 9.6 46 7.6 87 87 E 12 19 29.79 1009 10 16 N/A
4:35 am 04:35 Cloudy 49 9.7 46 7.6 87 87 ESE 9 15 29.79 1009 10 16 N/A
4:55 am 04:55 Cloudy 49 9.7 46 7.6 87 87 E 12 19 29.77 1008 10 16 N/A
5:15 am 05:15 Cloudy 49 9.7 46 7.8 88 88 ESE 6 9 29.78 1008 10 16 N/A
5:35 am 05:35 Cloudy 50 9.8 46 7.8 87 87 ESE 7 11 29.78 1008 10 16 N/A
5:55 am 05:55 Cloudy 49 9.7 46 7.8 88 88 E 9 15 29.77 1008 10 16 N/A
6:15 am 06:15 Cloudy 49 9.7 46 7.8 88 88 E 13 20 29.76 1008 10 16 N/A
6:35 am 06:35 Cloudy 49 9.6 46 7.8 89 89 E 9 15 29.75 1007 10 16 N/A
6:55 am 06:55 Cloudy 49 9.5 46 7.9 90 90 E 8 13 29.74 1007 10 16 N/A
7:15 am 07:15 Cloudy 49 9.6 46 7.8 89 89 E 10 17 29.74 1007 10 16 N/A
7:35 am 07:35 Cloudy 49 9.6 46 7.9 89 89 E 9 15 29.73 1007 10 16 N/A
7:55 am 07:55 Cloudy 49 9.5 46 7.9 90 90 E 10 17 29.73 1007 10 16 N/A
8:15 am 08:15 Cloudy 49 9.5 46 7.9 90 90 E 10 17 29.72 1006 10 16 N/A
8:35 am 08:35 Cloudy 49 9.5 46 8 90 90 E 9 15 29.71 1006 10 16 N/A
8:55 am 08:55 Mostly Cloudy 49 9.5 46 8 90 90 E 9 15 29.70 1006 10 16 N/A
9:15 am 09:15 Partly Cloudy 50 9.8 47 8.1 89 89 E 10 17 29.70 1006 10 16 N/A
9:35 am 09:35 Sunny 50 10 47 8.3 89 89 ENE 10 17 29.69 1005 10 16 N/A
9:55 am 09:55 Sunny 51 10.4 47 8.3 87 87 E 7 11 29.68 1005 10 16 N/A
10:15 am 10:15 Sunny 53 11.6 47 8.5 81 81 E 8 13 29.67 1005 10 16 N/A
10:35 am 10:35 Sunny 54 12.1 47 8.6 79 79 E 10 17 29.65 1004 10 16 N/A
10:55 am 10:55 Sunny 54 12 48 8.7 80 80 ENE 12 19 29.62 1003 10 16 N/A
11:15 am 11:15 Sunny 54 12.3 48 8.7 79 79 E 12 19 29.62 1003 10 16 N/A
11:35 am 11:35 Sunny 55 12.9 47 8.6 75 75 E 6 9 29.62 1003 10 16 N/A
11:55 am 11:55 Mostly Cloudy 56 13.5 48 8.7 73 73 E 10 17 29.61 1003 10 16 N/A
12:15 pm 12:15 Cloudy 56 13.5 47 8.4 71 71 ESE 12 19 29.62 1003 10 16 N/A
12:35 pm 12:35 Mostly Cloudy with Light Rain 56 13.4 49 9.7 78 78 E 8 13 29.61 1003 10 16 N/A
12:55 pm 12:55 Cloudy 56 13.5 50 10.1 80 80 ENE 9 15 29.59 1002 10 16 N/A
1:15 pm 13:15 Cloudy 57 13.7 50 9.8 77 77 ENE 9 15 29.57 1001 10 16 N/A
1:35 pm 13:35 Cloudy 58 14.2 49 9.6 74 74 ENE 9 15 29.56 1001 10 16 N/A
1:55 pm 13:55 Cloudy 57 13.9 49 9.7 76 76 ENE 9 15 29.55 1001 10 16 N/A
2:15 pm 14:15 Cloudy with Rain 55 13 52 11 88 88 SW 10 17 29.60 1002 3 5 N/A
2:35 pm 14:35 Cloudy with Rain 54 12.2 53 11.6 96 96 WSW 9 15 29.60 1002 4 6 N/A
2:55 pm 14:55 Cloudy with Rain 53 11.9 53 11.5 97 97 W 5 7 29.60 1003 7 11 N/A
3:15 pm 15:15 Cloudy with Rain 54 12 53 11.7 98 98 N N/A 29.60 1003 4 6 N/A
3:35 pm 15:35 Cloudy with Light Rain 54 12 53 11.6 97 97 ENE 3 6 29.58 1002 4 6 N/A
3:55 pm 15:55 Cloudy with Light Rain 53 11.9 53 11.7 99 99 NNE 3 6 29.58 1002 3 4 N/A
4:15 pm 16:15 Cloudy with Rain 53 11.9 53 11.8 99 99 E 7 11 29.59 1002 2 2 N/A
4:35 pm 16:35 Cloudy with Light Rain 54 12.2 54 12.1 99 99 E 3 6 29.58 1002 4 6 N/A
4:55 pm 16:55 Cloudy with Light Rain 54 12.2 54 12.1 99 99 ENE 3 6 29.58 1002 4 6 N/A
5:15 pm 17:15 Cloudy with Light Rain 54 12.2 54 12.1 99 99 ENE 6 9 29.57 1001 4 6 N/A
5:35 pm 17:35 Cloudy with Light Rain 54 12.2 54 12.1 99 99 NE 6 9 29.57 1001 4 6 N/A
5:55 pm 17:55 Cloudy with Light Rain 54 12.2 54 12.1 99 99 NE 5 7 29.57 1001 4 6 N/A
6:15 pm 18:15 Cloudy with Light Rain 54 12.2 54 12.1 99 99 NE 5 7 29.57 1001 7 11 N/A
6:35 pm 18:35 Cloudy 54 12.3 54 12.2 99 99 NE 5 7 29.57 1001 10 16 N/A
6:55 pm 18:55 Cloudy with Drizzle 54 12.3 54 12.2 99 99 NE 3 6 29.57 1001 10 16 N/A
7:15 pm 19:15 Cloudy with Drizzle 55 12.5 55 12.5 100 100 N N/A 29.57 1001 7 11 N/A
7:35 pm 19:35 Cloudy 55 12.7 55 12.6 99 99 N N/A 29.57 1001 10 16 N/A
7:55 pm 19:55 Cloudy with Light Rain 55 12.7 55 12.7 100 100 N 3 6 29.57 1001 5 8 N/A
8:15 pm 20:15 Cloudy with Light Rain 55 12.6 55 12.6 100 100 NE 3 6 29.57 1001 7 11 N/A
8:35 pm 20:35 Cloudy with Light Rain 55 12.7 55 12.6 99 99 NE 3 6 29.57 1001 7 11 0.01 0.25
8:55 pm 20:55 Cloudy with Light Rain 55 12.7 55 12.7 100 100 ENE 5 7 29.56 1001 10 16 0.01 0.25
9:15 pm 21:15 Cloudy with Light Rain 55 12.9 55 12.8 99 99 N 3 6 29.56 1001 7 11 N/A
9:35 pm 21:35 Cloudy with Light Rain 55 12.9 55 12.8 99 99 N N/A 29.56 1001 10 16 N/A
9:55 pm 21:55 Cloudy with Drizzle 56 13.5 56 13.2 98 98 E 5 7 29.56 1001 10 16 N/A
10:15 pm 22:15 Cloudy with Drizzle 57 13.7 56 13.1 96 96 ESE 5 7 29.55 1001 7 11 N/A
10:35 pm 22:35 Cloudy 56 13.6 56 13.3 98 98 ESE 6 9 29.55 1001 7 11 N/A
10:55 pm 22:55 Cloudy 57 13.7 56 13.3 97 97 ESE 5 7 29.55 1001 10 16 N/A
11:15 pm 23:15 Cloudy 57 13.7 56 13.3 97 97 ESE 5 7 29.55 1001 10 16 N/A
11:35 pm 23:35 Cloudy with Drizzle 56 13.6 56 13.3 98 98 ESE 6 9 29.55 1001 10 16 N/A
11:55 pm 23:55 Cloudy with Light Rain 56 13.6 56 13.3 98 98 N N/A 29.54 1000 5 8 N/A

Powered by AerisWeather